Погода в Дзивнуве

Польша     54°01′35″N   14°45′50″E
темп.,
°C
ветер,
м/с
пор.,
м/с
влажн.,
%
обл.,
%
осадки,
мм/ч
давл.,
гПа
погр.,
м
28 февраля, вс
вс2801:00+4зюз589096 0.0 1035200
04:00+3з6109214 0.0 1034236
07:00+3з69959 0.0 1034241
10:00+4зсз699146 0.0 1034310
13:00+5зсз688428 0.0 1034329
16:00+5сз57840 0.0 1033286
19:00+4зсз34900 0.0 103467
22:00+4зсз34900 0.0 103438
1 марта, пн
пн101:00+3зюз33910 0.0 103527
04:00+3зюз34910 0.0 103444
07:00+2зюз34920 0.0 103462
10:00+4зюз46840 0.0 1034223
13:00+6з46730 0.0 1034289
16:00+7з46700 0.0 1033294
19:00+6з56810 0.0 103386
22:00+4з57890 0.0 1033128
2 марта, вт
вт201:00+4з57900 0.0 1033124
04:00+3з57900 0.0 1032113
07:00+3з47910 0.0 1032115
10:00+5зсз57820 0.0 1033242
13:00+6зсз57760 0.0 1032244
16:00+7зсз45730 0.0 1031198
19:00+5сз34770 0.0 103246
22:00+4зсз34780 0.0 103239
3 марта, ср
ср301:00+4зсз33800 0.0 103223
04:00+3зюз33790 0.0 103022
07:00+3зюз33750 0.0 103024
10:00+6зюз34630 0.0 1030151
13:00+8зюз23610 0.0 1028268
16:00+8зюз13650 0.0 1026261
19:00+7ююз33702 0.0 102424
22:00+6юз457851 0.0 102353
4 марта, чт
чт401:00+5юз459048 0.0 102071
04:00+4зюз459243 0.0 101878
07:00+4зюз479270 0.0 1016152
10:00+5з5786100 0.0 1014272
13:00+6з578499 0.0 1013413
16:00+6зсз588099 0.0 1011498
19:00+4зсз588299 0.0 1011291
22:00+4сз4685100 0.2 1012416